[[{"header":{"parameterUnit":"m.s-1","parameterCategory":1,"la1":30.2991,"la2":30.254,"lo1":-89.0895,"lo2":-89.0444,"dy":0.0017,"dx":0.0017,"nx":28,"ny":28,"refTime":"2026-01-03T09:00:00:Z","depth":0,"parameterNumber":2,"parameterNumberName":"U-component_of_WINDS"},"data":[0,0,0,0,0,0,0,0,0,0,0,0,0,0,0,0,0,0,0,0,0,0,0,0,0,0,0,0,0,0,0,0,0,0,0,0,0,0,0,0,0,0,0,0,0,0,0,0,0,0,0,0,0,0,0,0,0,0,-2.3081,-2.3082,0,-2.3171,-2.3172,-2.3173,-2.3157,-2.3155,-2.3153,-2.3152,-2.3247,-2.325,-2.3254,0,0,0,0,0,0,0,0,0,0,0,0,0,-2.2896,-2.29,-2.3081,-2.3082,-2.3083,-2.3171,-2.3172,-2.3174,-2.3157,-2.3155,-2.3153,-2.3151,-2.3245,-2.325,-2.3255,0,0,0,0,0,0,0,0,0,0,0,0,0,-2.2981,-2.2901,-2.3081,-2.3085,-2.3087,-2.3171,-2.3172,-2.3174,-2.3157,-2.3155,-2.3153,-2.315,-2.3244,-2.325,-2.3255,-2.3341,0,0,-2.3274,-2.3277,0,0,0,0,0,0,0,0,-2.2976,-2.2987,-2.3084,-2.3085,-2.3087,-2.315,-2.3142,-2.323,-2.3158,-2.3131,-2.3152,-2.3149,-2.3217,-2.3225,-2.3247,-2.3346,-2.335,-2.3274,-2.3278,-2.3281,-2.3282,0,0,0,0,0,0,0,-2.297,-2.2983,-2.3117,-2.3085,-2.3087,-2.3084,-2.3093,-2.3159,-2.3186,-2.3133,-2.3132,-2.3143,-2.3217,-2.3241,-2.3249,-2.3351,-2.3274,-2.328,-2.3283,-2.3286,-2.3526,-2.3529,0,0,0,0,0,0,-2.2962,-2.2979,-2.3114,-2.3119,-2.3024,-2.3089,-2.3099,-2.3132,-2.3185,-2.3191,-2.3145,-2.3142,-2.3232,-2.3242,-2.3252,-2.3358,-2.3281,-2.3286,-2.329,-2.3523,-2.3527,-2.353,0,0,0,0,0,0,-2.2958,-2.2974,-2.311,-2.3049,-2.3066,-2.3095,-2.3132,-2.3135,-2.316,-2.3194,-2.3199,-2.3164,-2.3231,-2.3244,-2.332,-2.3361,-2.3289,-2.3295,-2.352,-2.3525,-2.3528,-2.3568,0,0,0,0,0,0,-2.2953,-2.2973,-2.3006,-2.305,-2.3069,-2.3175,-2.3134,-2.3139,-2.317,-2.3167,-2.3214,-2.322,-2.323,-2.3311,-2.3326,-2.3368,-2.3299,-2.3517,-2.3522,-2.3527,-2.3563,-2.3573,-2.3581,0,0,0,0,0,-2.2947,-2.3013,-2.3007,-2.3024,-2.311,-2.3178,-2.3189,-2.3199,-2.3173,-2.3207,-2.3229,-2.3218,-2.3353,-2.3318,-2.3335,-2.338,-2.3514,-2.3521,-2.3527,-2.3559,-2.3571,-2.3581,0,0,0,0,0,0,-2.2974,-2.3019,-2.3013,-2.3096,-2.3133,-2.3175,-2.3217,-2.3211,-2.3257,-2.3252,-2.3262,-2.3273,-2.3351,-2.3372,-2.3333,-2.3466,-2.343,-2.344,-2.3449,-2.3461,-2.347,-2.3464,-2.3304,0,0,0,0,0,-2.2989,-2.304,-2.3077,-2.3146,-2.3165,-2.3188,-2.3218,-2.3222,-2.3261,-2.3277,-2.3305,-2.3344,-2.3395,-2.3429,-2.3478,-2.3566,-2.3577,-2.3605,-2.3614,-2.3621,-2.363,-2.368,-2.3693,-2.355,-2.355,-2.355,0,0,-2.3022,-2.3053,-2.3084,-2.3153,-2.3182,-2.3235,-2.3201,-2.3258,-2.3298,-2.3286,-2.3359,-2.3381,-2.3425,-2.3508,-2.3545,-2.3528,-2.3672,-2.3629,-2.3635,-2.364,-2.3687,-2.3701,-2.3713,-2.3554,-2.3554,-2.3553,0,0,-2.311,-2.3137,-2.3199,-2.3229,-2.3274,-2.3288,-2.3303,-2.3346,-2.336,-2.3433,-2.3426,-2.3473,-2.3561,-2.3594,-2.3622,-2.3721,-2.3714,-2.3737,-2.3785,-2.3833,-2.3845,-2.3855,-2.3892,-2.3905,-2.3745,-2.3745,-2.3746,0,-2.3145,-2.3224,-2.3232,-2.329,-2.3321,-2.3311,-2.3374,-2.3403,-2.3462,-2.3484,-2.3464,-2.3575,-2.3604,-2.3694,-2.3719,-2.3741,-2.3759,-2.3732,-2.3842,-2.3852,-2.3862,-2.3898,-2.3911,-2.3748,-2.3748,-2.3748,-2.3747,0,-2.3266,-2.3321,-2.3365,-2.3422,-2.3458,-2.3518,-2.3536,-2.3571,-2.3572,-2.3589,-2.3665,-2.3699,-2.3756,-2.3777,-2.3779,-2.3869,-2.3857,-2.3839,-2.3804,-2.3878,-2.3912,-2.3926,-2.3752,-2.3751,-2.375,-2.375,0,0,-2.3374,-2.3434,-2.3451,-2.3477,-2.3525,-2.3568,-2.3628,-2.3683,-2.3714,-2.3755,-2.3807,-2.3881,-2.3865,-2.3897,-2.3902,-2.3944,-2.4023,-2.3922,-2.3923,-2.3941,-2.4126,-2.414,-2.4156,-2.4018,-2.402,-2.4023,-2.4123,0,-2.3468,-2.3573,-2.3582,-2.3678,-2.373,-2.3721,-2.3774,-2.381,-2.3828,-2.3875,-2.3894,-2.3948,-2.3922,-2.3941,-2.3982,-2.4005,-2.4061,-2.3998,-2.4068,-2.407,-2.4059,-2.4173,-2.4189,-2.4282,-2.4136,-2.4138,-2.414,0,-2.3591,-2.3635,-2.3736,-2.3778,-2.38,-2.3847,-2.3898,-2.3943,-2.3984,-2.3994,-2.4029,-2.4029,-2.4092,-2.4053,-2.4141,-2.4098,-2.4127,-2.4143,-2.4146,-2.4155,-2.4111,-2.4187,-2.4312,-2.4326,-2.4161,-2.4159,-2.4157,0,-2.3662,-2.3746,-2.3818,-2.384,-2.389,-2.3924,-2.3947,-2.3985,-2.4018,-2.4063,-2.4085,-2.4136,-2.4165,-2.4206,-2.422,-2.419,-2.4308,-2.427,-2.432,-2.432,-2.4347,-2.4345,-2.448,-2.4362,-2.4362,-2.4362,-2.4361,0,-2.3766,-2.3828,-2.385,-2.3895,-2.3965,-2.3974,-2.4044,-2.4065,-2.4099,-2.4148,-2.4144,-2.419,-2.4205,-2.4254,-2.4265,-2.4338,-2.435,-2.4361,-2.4364,-2.4363,-2.4362,-2.4383,-2.4378,-2.4365,-2.4365,-2.4364,-2.4363,0,-2.3858,-2.3874,-2.3952,-2.3994,-2.4005,-2.4056,-2.4091,-2.4135,-2.4151,-2.4213,-2.4228,-2.4255,-2.4312,-2.433,-2.4399,-2.4407,-2.4492,-2.4488,-2.4479,-2.448,-2.4529,-2.4525,-2.4684,-2.4706,-2.4572,-2.4573,-2.4575,0,-2.3924,-2.3972,-2.4018,-2.405,-2.4074,-2.4126,-2.4159,-2.4171,-2.4206,-2.4256,-2.4294,-2.4351,-2.4397,-2.449,-2.4516,-2.4569,-2.4568,-2.462,-2.4576,-2.4574,-2.4571,-2.4569,-2.4574,-2.4629,-2.463,-2.4631,-2.4632,0,-2.404,-2.4046,-2.4094,-2.4145,-2.4185,-2.4226,-2.4265,-2.4292,-2.4309,-2.4349,-2.4408,-2.4444,-2.4514,-2.4572,-2.4626,-2.465,-2.4645,-2.4645,-2.466,-2.466,-2.4654,-2.466,-2.4503,-2.4642,-2.4641,-2.464,-2.464,-2.4639,-2.4123,-2.4165,-2.4205,-2.4258,-2.4289,-2.4326,-2.4369,-2.4391,-2.444,-2.4498,-2.4502,-2.4566,-2.4607,-2.4679,-2.4706,-2.4757,-2.4742,-2.4763,-2.4769,-2.4774,-2.4779,-2.4644,-2.4767,-2.4767,-2.4766,-2.4766,-2.4766,0,-2.424,-2.4265,-2.4314,-2.437,-2.4412,-2.4402,-2.4445,-2.4482,-2.4538,-2.4576,-2.4621,-2.469,-2.4745,-2.4775,-2.4831,-2.4866,-2.4865,-2.4881,-2.4879,-2.4885,-2.4788,-2.4771,-2.4881,-2.4881,-2.488,-2.488,-2.488,-2.488,-2.4307,-2.4379,-2.439,-2.4478,-2.4502,-2.4564,-2.459,-2.4625,-2.4655,-2.4732,-2.4778,-2.4796,-2.4832,-2.489,-2.4941,-2.4949,-2.497,-2.4988,-2.4994,-2.4903,-2.4892,-2.4881,-2.4864,-2.4992,-2.4992,-2.5087,-2.5088,-2.5088]},{"header":{"parameterUnit":"m.s-1","parameterCategory":1,"la1":30.2991,"la2":30.254,"lo1":-89.0895,"lo2":-89.0444,"dy":0.0017,"dx":0.0017,"nx":28,"ny":28,"refTime":"2026-01-03T09:00:00:Z","depth":0,"parameterNumber":3,"parameterNumberName":"V-component_of_WINDS"},"data":[0,0,0,0,0,0,0,0,0,0,0,0,0,0,0,0,0,0,0,0,0,0,0,0,0,0,0,0,0,0,0,0,0,0,0,0,0,0,0,0,0,0,0,0,0,0,0,0,0,0,0,0,0,0,0,0,0,0,-1.5286,-1.5286,0,-1.5367,-1.5367,-1.5368,-1.534,-1.5338,-1.5336,-1.5335,-1.5419,-1.5423,-1.5427,0,0,0,0,0,0,0,0,0,0,0,0,0,-1.5107,-1.511,-1.5285,-1.5286,-1.5287,-1.5366,-1.5368,-1.5369,-1.534,-1.5338,-1.5336,-1.5334,-1.5418,-1.5423,-1.5427,0,0,0,0,0,0,0,0,0,0,0,0,0,-1.5186,-1.5111,-1.5285,-1.5283,-1.5283,-1.5366,-1.5368,-1.5369,-1.5341,-1.5338,-1.5335,-1.5333,-1.5417,-1.5422,-1.5428,-1.5519,0,0,-1.5446,-1.5449,0,0,0,0,0,0,0,0,-1.5181,-1.5193,-1.5282,-1.5283,-1.5284,-1.534,-1.5336,-1.5419,-1.5342,-1.5319,-1.5335,-1.5332,-1.5395,-1.5403,-1.5424,-1.5522,-1.5526,-1.5447,-1.545,-1.5453,-1.5454,0,0,0,0,0,0,0,-1.5176,-1.5189,-1.5318,-1.5284,-1.5285,-1.5278,-1.5286,-1.5351,-1.5371,-1.5321,-1.5319,-1.5329,-1.5395,-1.5418,-1.5426,-1.5527,-1.5446,-1.5452,-1.5455,-1.5458,-1.5704,-1.5707,0,0,0,0,0,0,-1.517,-1.5185,-1.5315,-1.532,-1.5225,-1.5283,-1.5293,-1.5325,-1.5371,-1.5375,-1.5331,-1.5327,-1.541,-1.5419,-1.5429,-1.5538,-1.5453,-1.5458,-1.5462,-1.5701,-1.5704,-1.5708,0,0,0,0,0,0,-1.5166,-1.5182,-1.5312,-1.5252,-1.5268,-1.5289,-1.5326,-1.5328,-1.5351,-1.5378,-1.5382,-1.5351,-1.5408,-1.542,-1.5496,-1.554,-1.5461,-1.5466,-1.5697,-1.5702,-1.5706,-1.5756,0,0,0,0,0,0,-1.5161,-1.5181,-1.5215,-1.5253,-1.5271,-1.5378,-1.5329,-1.5332,-1.5361,-1.5357,-1.5398,-1.5402,-1.5407,-1.5488,-1.5502,-1.5547,-1.5471,-1.5693,-1.5699,-1.5705,-1.5751,-1.5762,-1.5772,0,0,0,0,0,-1.5155,-1.5227,-1.5217,-1.5233,-1.5315,-1.5381,-1.5391,-1.5394,-1.5365,-1.54,-1.5417,-1.5401,-1.5533,-1.5496,-1.5512,-1.5559,-1.5691,-1.5698,-1.5704,-1.5746,-1.576,-1.5771,0,0,0,0,0,0,-1.5195,-1.5232,-1.5222,-1.5307,-1.5341,-1.5376,-1.542,-1.5409,-1.5452,-1.5446,-1.5449,-1.5458,-1.5536,-1.5555,-1.5513,-1.5649,-1.5607,-1.5618,-1.5634,-1.5647,-1.5657,-1.5651,-1.5476,0,0,0,0,0,-1.5213,-1.5263,-1.5293,-1.5366,-1.5383,-1.5399,-1.5427,-1.5427,-1.5462,-1.5476,-1.5499,-1.5534,-1.5583,-1.5616,-1.5663,-1.5753,-1.5762,-1.5793,-1.5804,-1.5812,-1.5821,-1.587,-1.5885,-1.573,-1.573,-1.573,0,0,-1.5253,-1.5279,-1.531,-1.5374,-1.54,-1.5452,-1.5411,-1.5468,-1.5506,-1.5485,-1.5558,-1.5576,-1.5615,-1.5699,-1.5736,-1.5717,-1.5866,-1.582,-1.5827,-1.5832,-1.5879,-1.5893,-1.5906,-1.5734,-1.5734,-1.5733,0,0,-1.5351,-1.5375,-1.5439,-1.5465,-1.5505,-1.5515,-1.553,-1.5566,-1.5577,-1.565,-1.5635,-1.5681,-1.5766,-1.5794,-1.582,-1.5928,-1.5914,-1.5943,-1.5997,-1.6045,-1.6057,-1.6068,-1.6107,-1.6121,-1.5952,-1.5952,-1.5952,0,-1.5395,-1.5472,-1.5473,-1.5531,-1.556,-1.5542,-1.5606,-1.5632,-1.5685,-1.5705,-1.5682,-1.5787,-1.5813,-1.5902,-1.5928,-1.595,-1.5967,-1.5939,-1.6055,-1.6066,-1.6076,-1.6113,-1.6128,-1.5955,-1.5955,-1.5954,-1.5954,0,-1.5525,-1.5579,-1.5625,-1.5676,-1.571,-1.5771,-1.5781,-1.5815,-1.5811,-1.5823,-1.5898,-1.5927,-1.5979,-1.6,-1.5997,-1.609,-1.6076,-1.6054,-1.6013,-1.6094,-1.6129,-1.6143,-1.596,-1.5958,-1.5957,-1.5957,0,0,-1.5652,-1.5701,-1.5718,-1.5741,-1.5783,-1.5825,-1.5884,-1.5935,-1.5964,-1.6001,-1.6052,-1.6123,-1.6103,-1.6132,-1.6132,-1.6174,-1.6257,-1.6146,-1.6147,-1.6167,-1.6361,-1.6378,-1.6395,-1.6248,-1.6251,-1.6253,-1.6358,0,-1.5754,-1.5859,-1.5861,-1.5957,-1.6007,-1.599,-1.6042,-1.6073,-1.6086,-1.613,-1.6144,-1.6195,-1.6164,-1.6181,-1.6222,-1.6239,-1.6297,-1.6231,-1.6296,-1.6298,-1.6288,-1.6413,-1.6431,-1.6529,-1.6372,-1.6374,-1.6376,0,-1.5888,-1.5928,-1.6029,-1.6063,-1.6084,-1.6131,-1.6177,-1.6219,-1.6254,-1.626,-1.6292,-1.6286,-1.6347,-1.6303,-1.6387,-1.6343,-1.6369,-1.6381,-1.6385,-1.6392,-1.6343,-1.6424,-1.656,-1.6576,-1.6397,-1.6395,-1.6394,0,-1.5971,-1.605,-1.6121,-1.6141,-1.6182,-1.6216,-1.6234,-1.6266,-1.6296,-1.6337,-1.6356,-1.6403,-1.6429,-1.6466,-1.6472,-1.644,-1.6558,-1.6514,-1.6565,-1.6565,-1.6592,-1.659,-1.6735,-1.6607,-1.6607,-1.6607,-1.6606,0,-1.6085,-1.6148,-1.6159,-1.6203,-1.6273,-1.6274,-1.6343,-1.6359,-1.6388,-1.6434,-1.6422,-1.6466,-1.6471,-1.6517,-1.6522,-1.6592,-1.6603,-1.6611,-1.6611,-1.6612,-1.6612,-1.6631,-1.6625,-1.6611,-1.661,-1.6609,-1.6608,0,-1.6191,-1.6201,-1.6277,-1.6309,-1.6318,-1.6369,-1.6396,-1.6438,-1.6449,-1.6508,-1.6522,-1.6539,-1.6592,-1.6601,-1.6664,-1.6668,-1.6751,-1.6744,-1.6739,-1.6739,-1.679,-1.6785,-1.6953,-1.6975,-1.6832,-1.6833,-1.6834,0,-1.6264,-1.6312,-1.6349,-1.6379,-1.6399,-1.6448,-1.6478,-1.6481,-1.6513,-1.6556,-1.6593,-1.6644,-1.6685,-1.6771,-1.6789,-1.6837,-1.6832,-1.6887,-1.6839,-1.6839,-1.6834,-1.6831,-1.6836,-1.6897,-1.6899,-1.69,-1.6901,0,-1.6393,-1.6395,-1.6439,-1.6485,-1.6521,-1.6557,-1.6591,-1.6617,-1.6624,-1.6661,-1.6714,-1.6746,-1.681,-1.6861,-1.6908,-1.6928,-1.6916,-1.6916,-1.693,-1.6932,-1.6928,-1.6932,-1.6765,-1.6912,-1.6911,-1.691,-1.691,-1.6909,-1.6485,-1.6526,-1.6559,-1.6608,-1.6634,-1.6666,-1.6707,-1.6722,-1.6767,-1.6818,-1.6817,-1.6876,-1.6909,-1.6971,-1.6994,-1.704,-1.7022,-1.7043,-1.7049,-1.7054,-1.7059,-1.6919,-1.7048,-1.7048,-1.7048,-1.7048,-1.7047,0,-1.6614,-1.6633,-1.6678,-1.6726,-1.6765,-1.6749,-1.6786,-1.682,-1.6872,-1.6903,-1.6944,-1.7005,-1.7055,-1.7076,-1.7125,-1.7158,-1.7154,-1.7171,-1.7169,-1.7174,-1.7072,-1.7055,-1.7174,-1.7174,-1.7174,-1.7174,-1.7174,-1.7174,-1.6685,-1.6755,-1.6761,-1.6843,-1.6862,-1.6919,-1.6942,-1.6971,-1.6996,-1.7066,-1.7106,-1.712,-1.7148,-1.7198,-1.7243,-1.7248,-1.7267,-1.7287,-1.729,-1.7194,-1.7181,-1.7169,-1.7153,-1.7291,-1.7291,-1.7388,-1.7389,-1.7389]}]]